Location: STAR School
(35.3054°N, 111.2976°W)
Time: 16:24:37
(UTC-07:00)

CUTE 1.7 + AOD 2 - Visible Passes

Search period start: 13 October 2019 00:00
Search period end: 23 October 2019 00:00
Orbit: 595 x 611 km, 97.6° (Epoch: 13 October)

Date Brightness Start Highest point End Pass type
(mag) Time Alt. Az. Time Alt. Az. Time Alt. Az.
13 Oct ? 04:48:15 10° ENE 04:49:51 12° E 04:51:25 10° ESE visible
14 Oct ? 04:59:14 10° NE 05:01:58 17° E 05:04:41 10° SE visible
15 Oct ? 05:10:42 10° NE 05:14:05 23° E 05:17:26 10° SSE visible
16 Oct ? 05:22:22 10° NNE 05:26:10 32° E 05:29:56 10° SSE visible
17 Oct ? 05:34:11 10° NNE 05:38:15 45° E 05:42:16 10° S visible
18 Oct ? 05:46:05 10° NNE 05:50:17 64° E 05:54:27 10° S visible
18 Oct ? 18:11:52 10° SW 18:14:55 19° W 18:17:59 10° NW visible
19 Oct ? 05:58:05 10° NNE 06:02:19 89° WNW 06:06:31 10° SSW visible
19 Oct ? 18:24:51 10° WSW 18:27:02 14° W 18:29:14 10° WNW visible
21 Oct ? 04:48:35 10° ENE 04:50:19 12° E 04:52:03 10° ESE visible
22 Oct ? 04:59:39 10° NE 05:02:27 17° E 05:05:14 10° SE visible
